TimeCDT,TemperatureF,Dew PointF,Humidity,Sea Level PressureIn,VisibilityMPH,Wind Direction,Wind SpeedMPH,Gust SpeedMPH,PrecipitationIn,Events,Conditions,WindDirDegrees,DateUTC
12:52 AM,23.0,18.0,81,30.28,10.0,ESE,4.6,-,N/A,,Clear,120,2011-11-04 05:52:00
1:52 AM,24.1,19.9,84,30.26,10.0,ESE,6.9,-,N/A,,Clear,110,2011-11-04 06:52:00
2:52 AM,23.0,19.0,85,30.26,10.0,ESE,6.9,-,N/A,,Clear,110,2011-11-04 07:52:00
3:52 AM,23.0,19.0,85,30.26,10.0,ESE,5.8,-,N/A,,Clear,120,2011-11-04 08:52:00
4:52 AM,25.0,21.0,85,30.25,10.0,ESE,10.4,-,N/A,,Clear,110,2011-11-04 09:52:00
5:52 AM,24.1,21.0,88,30.23,10.0,SE,10.4,-,N/A,,Clear,130,2011-11-04 10:52:00
6:52 AM,25.0,21.9,88,30.25,10.0,SE,5.8,-,N/A,,Clear,140,2011-11-04 11:52:00
7:52 AM,24.8,21.2,86,30.21,10.0,SE,5.8,-,N/A,,Clear,130,2011-11-04 12:52:00
8:52 AM,28.0,24.1,85,30.25,10.0,SE,9.2,-,N/A,,Clear,130,2011-11-04 13:52:00
9:52 AM,34.0,28.0,79,30.25,10.0,SE,9.2,-,N/A,,Clear,140,2011-11-04 14:52:00
10:52 AM,42.1,30.9,65,30.23,10.0,SSE,11.5,-,N/A,,Clear,160,2011-11-04 15:52:00
11:52 AM,46.9,30.9,54,30.22,10.0,SSE,15.0,-,N/A,,Clear,160,2011-11-04 16:52:00
12:52 PM,51.1,30.0,44,30.18,10.0,South,17.3,-,N/A,,Clear,180,2011-11-04 17:52:00
1:52 PM,53.1,30.9,43,30.14,10.0,SE,16.1,23.0,N/A,,Clear,140,2011-11-04 18:52:00
2:52 PM,54.0,32.0,43,30.10,10.0,SSE,17.3,28.8,N/A,,Clear,160,2011-11-04 19:52:00
3:52 PM,53.1,32.0,45,30.09,10.0,SSE,16.1,25.3,N/A,,Clear,160,2011-11-04 20:52:00
4:52 PM,53.1,30.0,41,30.06,10.0,South,20.7,28.8,N/A,,Clear,170,2011-11-04 21:52:00
5:52 PM,51.1,30.0,44,30.04,10.0,SSE,13.8,-,N/A,,Clear,160,2011-11-04 22:52:00
6:52 PM,48.0,30.9,52,30.04,10.0,SSE,11.5,-,N/A,,Clear,150,2011-11-04 23:52:00
7:52 PM,46.0,28.9,51,30.03,10.0,SE,11.5,-,N/A,,Clear,140,2011-11-05 00:52:00
8:52 PM,43.0,28.0,56,30.02,10.0,SSE,12.7,-,N/A,,Clear,150,2011-11-05 01:52:00
9:52 PM,42.1,30.0,62,30.01,10.0,SE,12.7,-,N/A,,Clear,140,2011-11-05 02:52:00
10:52 PM,39.0,30.9,73,30.01,10.0,SE,6.9,-,N/A,,Clear,140,2011-11-05 03:52:00
11:52 PM,43.0,36.0,76,29.99,10.0,SSE,12.7,19.6,N/A,,Clear,150,2011-11-05 04:52:00